Regional Weather Roundup
Issued by NWS

Home | Current Version | Previous Version | Graphics & Text | Print | Product List | Glossary On
Versions: 1 2 3 4 5 6 7 8 9 10 11 12 13 14 15 16 17 18 19 20 21 22 23 24 25 26 27 28 29 30 31 32 33 34 35 36 37 38 39 40 41 42 43 44 45 46 47 48 49 50
000
ASUS45 KBOU 192007
RWRCO

WEATHER ROUNDUP FOR COLORADO
NATIONAL WEATHER SERVICE DENVER/BOULDER CO
200 PM MDT SAT AUG 19 2017

NOTE: "FAIR" INDICATES FEW OR NO CLOUDS BELOW 12000 FEET WITH NO
SIGNIFICANT WEATHER AND/OR OBSTRUCTIONS TO VISIBILITY.

COZ001>005-013-030-031-192100-
...NORTHWEST COLORADO...

CITY           SKY/WX    TMP DP  RH WIND       PRES   REMARKS
CRAIG          FAIR      88  16   7 W16       30.18F
HAYDEN         FAIR      83  25  12 W8G24     30.22F
MEEKER         FAIR      87  23   9 W15G23    30.20F
RABBIT EARS PA FAIR      64  30  27 NW10G22   30.51F
STEAMBOAT SPGS FAIR      81  26  13 S15       30.22F
WALDEN         FAIR      77  21  12 W14G22    30.32F
$$

COZ006>008-011-192100-
...WEST CENTRAL VALLEYS...

CITY           SKY/WX    TMP DP  RH WIND       PRES   REMARKS
GRAND JUNCTION FAIR      91  34  13 VRB5      30.08F
MONTROSE       FAIR      87  42  20 NW15      30.16F
EAGLE          FAIR      85  31  14 SW26G37   30.20F
RIFLE          FAIR      88  32  13 W13G21    30.13F
DELTA          FAIR      91  29  11 SW13G20   30.13F
NUCLA          FAIR      90  28  11 NE9       30.20F
$$

COZ017>023-064>068-192100-
...SOUTHWEST COLORADO...

CITY           SKY/WX    TMP DP  RH WIND       PRES   REMARKS
DURANGO        FAIR      85  26  11 SW3G22    30.22F
CORTEZ         FAIR      90  31  12 S12       30.17F
PAGOSA SPRINGS FAIR      82  20  10 SW14G21   30.30F
TELLURIDE      FAIR      72  27  18 S5        30.45F
WOLF CREEK PAS NOT AVBL
$$

COZ009-010-012-014-032>034-037-058>063-192100-
...CENTRAL COLORADO...

CITY           SKY/WX    TMP DP  RH WIND       PRES   REMARKS
ASPEN          CLOUDY    72  36  26 CALM      30.36R
BUENA VISTA    FAIR      80  22  11 NW3G9     30.28F
COPPER MTN     PTSUNNY   59  27  29 NW18G28   30.64S
BERTHOUD PASS  FAIR      52  46  82 W32G39    30.64F
COTTONWOOD PAS PTSUNNY   73  12   9 NW6       30.45F
GUNNISON       FAIR      79  35  20 SW12G17   30.29F
KREMMLING      FAIR      86  21   9 W9G21     30.26F
LEADVILLE      FAIR      70  24  17 W14G25    30.42F
MONARCH PASS   FAIR      63  21  20 SW25G31   30.73F
SALIDA         FAIR      85  20   9 NW8G21    30.33F
SUNLIGHT       LGT RAIN  55  30  38 SW16G33   30.58F
WILKERSON PASS FAIR      66  27  22 SW7       30.59F
$$

COZ069>075-192100-
...SAN LUIS VALLEY/SANGRE DE CRISTO MOUNTAINS...

CITY           SKY/WX    TMP DP  RH WIND       PRES   REMARKS
ALAMOSA        FAIR      83  33  16 N5        30.28F
DEL NORTE      FAIR      82  31  15 SW13G20   30.31F
LA VETA PASS   NOT AVBL
SAGUACHE       FAIR      79  37  22 W3        30.31F
$$

COZ035-036-038>040-192100-
...NORTHERN COLORADO FRONT RANGE...

CITY           SKY/WX    TMP DP  RH WIND       PRES   REMARKS
DENVER INTL AP FAIR      92  32  12 S12       30.05F
DMNS CITY PARK   N/A     91  31  12 W5G15     30.04F
AURORA         MOSUNNY   90  38  15 SW8       30.07F
FRONT RANGE AP FAIR      91  32  12 NW9       30.07F
ERIE MUNI ARPT FAIR      95  28   9 NW8G18    30.06F
BOULDER MUN AP FAIR      93  32  11 W8G21     30.03F
CENTENNIAL     FAIR      88  29  12 SE6       30.09F
BROOMFIELD     MOSUNNY   91  32  12 W18G24    30.07F
FORT COLLINS   FAIR      93  46  19 SE8       30.02F HAZE
LONGMONT       FAIR      97  34  11 W9G16     30.01F
$$

COZ041-046-047-076>085-087-088-192100-
...PIKES PEAK/PALMER DIVIDE AND SOUTHERN FOOTHILLS...

CITY           SKY/WX    TMP DP  RH WIND       PRES   REMARKS
COLO. SPRINGS  PTSUNNY   88  36  15 S9        30.15F
A. F. ACADEMY  FAIR      86  34  16 S3G25     30.16F
SCHRIEVER AFB  FAIR      85  33  15 S6        30.16F
CHEYENNE MTN   PTSUNNY   81  41  24 SE10      30.16F
ELLICOTT       NOT AVBL
FALCON         FAIR      85  33  15 SW8G16    30.22F
FORT CARSON    FAIR      83  47  27 CALM      30.12F
LIMON          FAIR      90  36  14 W12G18    30.07F
MONUMENT HILL  FAIR      81  34  18 NW5       30.23F
CANON CITY     SUNNY     91  39  16 S5        30.07F
WALSENBURG     FAIR      91  36  14 N8        30.14F
TRINIDAD       FAIR      83  41  22 SE18      30.14F
$$

COZ042>045-048>051-090-091-192100-
...NORTHEAST COLORADO...

CITY           SKY/WX    TMP DP  RH WIND       PRES   REMARKS
GREELEY ARPT   FAIR      90  45  21 CALM      30.00F
AKRON          FAIR      92  37  14 W7        30.01F
BURLINGTON     FAIR      91  61  36 SW14      30.00F
WRAY           NOT AVBL
YUMA           FAIR      90  54  29 SE6       29.96F
STERLING       FAIR      91  52  25 S8        29.93F
HOLYOKE        FAIR      95  64  36 S8        29.93F
FORT MORGAN    FAIR      95  34  12 S6        30.00F
$$

COZ086-089-092>099-192100-
...SOUTHEAST COLORADO...

CITY           SKY/WX    TMP DP  RH WIND       PRES   REMARKS
PUEBLO         FAIR      89  38  16 SW10G29   30.03F
LA JUNTA       FAIR      92  48  22 CALM      30.00F
LAMAR          FAIR      96  55  25 S10G22    29.95F
SPRINGFIELD      N/A     90  56  31 S20G29    30.05F
$$



USA.gov is the U.S. government's official web portal to all federal, state and local government web resources and services.